Regional Weather Roundup
Issued by NWS Upton, NY

Current Version | Previous Version | Text Only | Print | Product List | Glossary Off
Versions: 1 2 3 4 5 6 7 8 9 10 11 12 13 14 15 16 17 18 19 20 21 22 23 24 25 26 27 28 29 30 31 32 33 34 35 36 37 38 39 40 41 42 43 44 45 46 47 48 49 50
000 ASUS41 KOKX 181405 RWROKX Regional Weather Roundup National Weather Service New York NY 1000 AM EDT WED APR 18 2018 Note: "FAIR" indicates few or no clouds below 12,000 feet with no significant weather and/or obstructions to visibility. NYZ071-072-176-178-NJZ106-104-181500- New York City Metro Area CITY SKY/WX TMP DP RH WIND PRES REMARKS Central Park CLOUDY 43 26 51 MISG 29.83S Bronx Bot Gard N/A 41 27 56 SW18 29.83S Bronx Lehman C N/A 41 27 56 W9 N/A LaGuardia Arpt PTSUNNY 43 25 49 W12 29.81S Queens College N/A 41 27 56 W13 N/A Kennedy Intl PTSUNNY 44 28 53 W16 29.83S Breezy Point N/A 41 N/A N/A W13G22 N/A Brooklyn Coll N/A 43 27 52 W12 N/A Staten Island N/A 43 28 56 W13 N/A Newark/Liberty PTSUNNY 47 28 47 W15G26 29.82S Teterboro CLOUDY 43 27 53 W13G21 29.81R $$ NYZ177-179-078>081-181500- Long Island New York CITY SKY/WX TMP DP RH WIND PRES REMARKS Jones Beach N/A 41 N/A N/A W17G23 N/A Wantagh N/A 43 28 56 W13 N/A Hempstead N/A 43 30 61 W14 29.84S Matinecock Pt N/A 41 N/A N/A W21 N/A Farmingdale CLOUDY 42 26 53 W13G21 29.81R MacArthur/ISP CLOUDY 45 27 49 W20G28 29.79R Stony Brook N/A 41 28 60 W12G23 N/A Shirley PTSUNNY 44 29 55 W10G25 29.79S Mt Sinai Harb N/A 43 N/A N/A W13G18 N/A Westhampton PTSUNNY 44 25 47 W18G24 29.79S East Hampton PTSUNNY 41 26 54 W17 29.77S Southold N/A 43 32 65 W13G26 N/A Montauk N/A 45 28 51 W12G21 29.77R $$ NYZ052-065-067-181500- Hudson Valley CITY SKY/WX TMP DP RH WIND PRES REMARKS White Plains PTSUNNY 40 25 55 W13G24 29.77S WCI 32 Larchmont Harb N/A 39 N/A N/A W15G21 N/A WCI 31 Croton On Huds N/A 41 N/A N/A SW15 N/A Somers N/A 37 30 75 W8 N/A WCI 31 Brewster N/A 39 30 70 W8 N/A WCI 34 Newburgh CLOUDY 39 32 75 W14G23 29.77S WCI 31 Montgomery CLOUDY 40 28 62 W10G17 29.75F WCI 33 Otisville N/A 37 30 75 W8 N/A WCI 31 Warwick N/A 39 30 70 W10 N/A WCI 32 Suffern N/A 39 28 65 W9 N/A WCI 33 Poughkeepsie CLOUDY 41 28 60 SW14 29.75S Albany CLOUDY 41 28 60 W18G28 29.71R $$ NJZ001-105-106-008-010-013-015-019>022-104-181500- New Jersey CITY SKY/WX TMP DP RH WIND PRES REMARKS Newark/Liberty PTSUNNY 47 28 47 W15G26 29.82S Teterboro CLOUDY 43 27 53 W13G21 29.81R Caldwell CLOUDY 42 26 53 W14G25 29.82R Somerville CLOUDY 43 28 55 W10G20 29.82S Linden PTSUNNY 44 28 52 NW13G24 29.83S Perth Amboy N/A 41 N/A N/A W23G30 N/A Sussex CLOUDY 40 28 62 NW7 29.79S Andover N/A 40 26 57 VRB6 29.80S Trenton FAIR 43 27 53 W14G21 29.85S Millville FAIR 45 27 49 W16G23 29.90F Atlantic City FAIR 45 26 47 W16G25 29.89F Wrightstown FAIR 45 26 47 W12G18 29.84 Toms River FAIR 45 27 49 NW17G26 29.87S Belmar FAIR 44 26 49 W13 29.85S $$ PAZ047>061-062-071-181500- Eastern Pennsylvania CITY SKY/WX TMP DP RH WIND PRES REMARKS Philadelphia FAIR 43 25 49 W15 29.90F Allentown CLOUDY 42 26 53 W12 29.85R Scranton CLOUDY 38 27 64 W12 29.80S WCI 30 $$ CTZ002-004>006-009-010-012-RIZ004-006-007-MAZ004-011-015-181500- Southern New England In CT CITY SKY/WX TMP DP RH WIND PRES REMARKS Bradley Intl PTSUNNY 39 27 62 SW7 29.72S WCI 34 Hartford CLOUDY 42 28 57 W8 29.74S Danbury CLOUDY 39 28 64 W10G22 29.77R WCI 32 Wtrbury/Oxford PTSUNNY 39 28 64 W9G22 29.73R WCI 33 Norwalk Harbor N/A 39 N/A N/A W18G25 N/A WCI 30 Bridgeport CLOUDY 43 28 55 W13G26 29.77R Meriden CLOUDY 40 27 59 W9G20 29.75S WCI 34 New Haven CLOUDY 44 29 55 W10 29.76R Chester CLOUDY 41 27 56 W8G17 29.74R Groton CLOUDY 42 29 59 W15G23 29.74S Willimantic CLOUDY 40 27 59 W9 29.73R WCI 34 In RI CITY SKY/WX TMP DP RH WIND PRES REMARKS Providence PTSUNNY 40 28 62 W20 29.72R WCI 30 Block Island PTSUNNY 42 29 59 W22G29 29.75S Westerly CLOUDY 42 29 59 SW15G24 29.75R In MA CITY SKY/WX TMP DP RH WIND PRES REMARKS Boston FAIR 43 27 53 W16G22 29.65S Worcester CLOUDY 35 24 64 W16 29.65R WCI 25 Westfield CLOUDY 40 28 62 W6 29.70R Provincetown FAIR 42 28 57 W17G24 29.67S Nantucket FAIR 43 28 55 W24 29.71S $$ ANZ330-335-338-340-345-350-353-355-181500- Coastal Marine Observations STATION/POSITION TIME SKY/WX TEMP WIND PRES VSBY WAVE AIR SEA DIR/SP/G HT/PER (UTC) (F) (DEG/KT/KT) (MB) (MI) (FT/S) NY Harb Entrance 1350 41 44 260/ 16/ 19 1010.3 4/ 9 20 S Fire Island 1350 41 42 270/ 19/ 23 1009.8 5/ 6 23 SSW Montauk P 1350 40 42 260/ 21/ 25 1008.3 5/ 6 15 E Barnegat Li 1330 44 N/A 4/ 5 Hudson Canyon 1350 41 44 280/ 19/ 25 1010.4 7/ 6 Kings Point 1336 40 43 310/ 14/ 17 1010.5 Execution Rocks NOT AVBL Western LI Sound NOT AVBL Central LI Sound 1330 40 270/ 19/ 23 N/A 3 Robbins Reef 1342 41 280/ 18/ 22 1010.2 $$ >>>>>>>>>>>>>>>>>>>>>>>>>>>> KEY <<<<<<<<<<<<<<<<<<<<<<<<<<< > < > SKY/WX - Sky Condition/Present Weather < > TMP - Temperature in Fahrenheit < > DP - Dew Point in Fahrenheit < > RH - Relative Humidity in Percent < > WIND - Direction (from) and Speed in MPH < > PRES - Mean Sea Level Pressure (inches of Hg) < > WCI - Wind Chill Index < > VSB - Visibility in Miles < > HX - Heat Index < > TC - Temperature in Celsius < > VRB - Varibale Wind Direction < > < >>>>>>>>>>>>>>>>>>>>>>>>>>>> KEY <<<<<<<<<<<<<<<<<<<<<<<<<<<

USA.gov is the U.S. government's official web portal to all federal, state and local government web resources and services.